Regional Weather Roundup
Issued by NWS

Home | Current Version | Previous Version | Graphics & Text | Print | Product List | Glossary On
Versions: 1 2 3 4 5 6 7 8 9 10 11 12 13 14 15 16 17 18 19 20 21 22 23 24 25 26 27 28 29 30 31 32 33 34 35 36 37 38 39 40 41 42 43 44 45 46 47
000
ASUS45 KSLC 020510
RWRUT

UTAH REGIONAL WEATHER ROUNDUP
NATIONAL WEATHER SERVICE SALT LAKE CITY UT
1100 PM MDT TUE SEP 01 2015

UTZ001>011-023>025-020600-

NORTHERN UTAH

CITY           SKY/WX    TMP DP  RH WIND       PRES   REMARKS
BRIGHAM CITY   CLEAR     77  32  19 SE6       29.89S
HILL AFB       CLEAR     77  35  22 SE13      29.95S
LOGAN          CLEAR     70  44  39 S6        29.91F
OGDEN          CLEAR     74  44  34 S12       29.91F
PROVO AIRPORT  PTCLDY    75  43  31 S15       30.00R
SALT LAKE CITY PTCLDY    80  34  19 S14       29.91S
VERNAL         PTCLDY    68  45  43 SW7       30.14S
WENDOVER       CLEAR     75  28  17 W10       29.88R
HEBER CITY     PTCLDY    68  41  37 NE3       30.08S
WEST JORDAN    CLEAR     75  39  27 SE14      29.97R

$$

UTZ012>022-026-027-020600-

SOUTHERN/CENTRAL UTAH

CITY           SKY/WX    TMP DP  RH WIND       PRES   REMARKS
BLANDING       CLEAR     65  44  46 N3        30.25S
BRYCE CANYON   PTCLDY    54  43  66 W7        30.31S
CEDAR CITY     PTCLDY    67  40  37 SW7       30.14R
DELTA          CLEAR     76  29  17 SE12      30.02S
HANKSVILLE     PTCLDY    68  52  56 NE6       30.09S
MILFORD        CLEAR     66  37  34 SW6       30.07R
MOAB/CYNLANDS  MOCLDY    70  54  56 NW6       30.06F
PRICE          PTCLDY    65  43  44 CALM      30.17R
ST GEORGE      PTCLDY    82  45  26 SE8       29.96R
KANAB          CLEAR     64  55  72 CALM      30.18R

$$

REGIONAL REPORTS     COLORADO/ARIZONA

CITY           SKY/WX    TMP DP  RH WIND       PRES   REMARKS
CRAIG, CO      CLOUDY    59  44  57 VRB5      30.22S
GRAND JUNCTION PTCLDY    67  51  56 E6        30.13R
RIFLE          MOCLDY    59  53  80 E5        30.22F
MONTROSE       MOCLDY    67  50  54 E8        30.24S
CORTEZ         CLEAR     62  47  57 E6        30.20R
PAGE, AZ       CLEAR     78  49  35 S10       30.06R
GRAND CANYON   CLEAR     57  52  83 CALM      30.28R
KINGMAN        MOCLDY    79  46  31 S9        30.02R
FLAGSTAFF      PTCLDY    60  50  69 SW3       30.33R

$$

REGIONAL REPORTS    NEVADA/IDAHO/WYOMING

CITY           SKY/WX    TMP DP  RH WIND       PRES   REMARKS
LAS VEGAS, NV  PTCLDY    91  52  26 S15       29.84R
ELY            CLEAR     65  28  24 S12       30.12R
ELKO           CLEAR     69  26  20 CALM      29.94R
POCATELLO, ID  CLEAR     74  35  24 S10       29.87F
BURLEY         CLEAR     60  46  59 CALM      29.83S
EVANSTON, WY   PTCLDY    65  35  33 SE8       30.17F
ROCK SPRINGS   CLEAR     61  42  49 SE12      30.17S
KEMMERER       CLEAR     63  34  34 S6        30.19R

$$


USA.gov is the U.S. government's official web portal to all federal, state and local government web resources and services.